contact:dominique.lefevre@mio.osupytheas.fr, maurice.libes@osupytheas.fr, didier.mallarino@osupytheas.fr
Project:EMSO http://www.emso-fr.org/EMSO-France
Depth: 2436.0 m
Title:EMSO Ligure Ouest : Data MII capteur CSTAR
DateTime,Latitude,Longitude,Instrument_Serial,Reference_Counts,Signal_Counts,Corrected_Signal_raw_counts,Calculated_Beam_c_inverse_meters,Internal_thermistor_counts
DateTime,Latitude,Longitude,Instrument_Serial,Reference_Counts,Signal_Counts,Corrected_Signal_raw_counts,Calculated_Beam_c_inverse_meters,Internal_thermistor_counts
2019-07-06T00:02:39,42.805,6.029,CST-1368DR,8775,12275,15487,0.033,551
2019-07-06T00:05:40,42.805,6.029,CST-1368DR,8775,12276,15488,0.033,551
2019-07-06T00:08:42,42.805,6.029,CST-1368DR,8775,12276,15488,0.033,551
2019-07-06T00:11:43,42.805,6.029,CST-1368DR,8775,12276,15489,0.033,551
2019-07-06T00:14:44,42.805,6.029,CST-1368DR,8775,12277,15489,0.033,551
2019-07-06T00:17:46,42.805,6.029,CST-1368DR,8775,12276,15488,0.033,551
2019-07-06T00:20:47,42.805,6.029,CST-1368DR,8775,12277,15489,0.033,550
2019-07-06T00:23:49,42.805,6.029,CST-1368DR,8775,12276,15489,0.033,551
2019-07-06T00:26:50,42.805,6.029,CST-1368DR,8775,12273,15485,0.034,551
2019-07-06T00:29:51,42.805,6.029,CST-1368DR,8774,12277,15491,0.032,551
2019-07-06T00:32:53,42.805,6.029,CST-1368DR,8774,12277,15491,0.032,551
2019-07-06T00:35:54,42.805,6.029,CST-1368DR,8774,12276,15490,0.032,551
2019-07-06T00:38:56,42.805,6.029,CST-1368DR,8774,12276,15490,0.032,550
2019-07-06T00:41:57,42.805,6.029,CST-1368DR,8774,12276,15489,0.033,551
2019-07-06T00:44:58,42.805,6.029,CST-1368DR,8774,12276,15490,0.032,550
2019-07-06T00:48:00,42.805,6.029,CST-1368DR,8774,12276,15490,0.032,551
2019-07-06T00:51:01,42.805,6.029,CST-1368DR,8774,12277,15491,0.032,551
2019-07-06T00:54:03,42.805,6.029,CST-1368DR,8774,12275,15489,0.033,551
2019-07-06T00:57:04,42.805,6.029,CST-1368DR,8774,12270,15482,0.034,551
2019-07-06T01:00:06,42.805,6.029,CST-1368DR,8774,12276,15490,0.032,551
2019-07-06T01:03:07,42.805,6.029,CST-1368DR,8774,12274,15488,0.033,551
2019-07-06T01:06:08,42.805,6.029,CST-1368DR,8774,12275,15489,0.033,551
2019-07-06T01:09:10,42.805,6.029,CST-1368DR,8774,12276,15490,0.032,551
2019-07-06T01:12:11,42.805,6.029,CST-1368DR,8774,12275,15489,0.033,551
2019-07-06T01:15:13,42.805,6.029,CST-1368DR,8774,12274,15488,0.033,551
2019-07-06T01:18:14,42.805,6.029,CST-1368DR,8774,12275,15489,0.033,551
2019-07-06T01:21:15,42.805,6.029,CST-1368DR,8774,12275,15488,0.033,551
2019-07-06T01:24:17,42.805,6.029,CST-1368DR,8774,12276,15490,0.032,551
2019-07-06T01:27:18,42.805,6.029,CST-1368DR,8774,12276,15490,0.032,551
2019-07-06T01:30:20,42.805,6.029,CST-1368DR,8774,12277,15491,0.032,551
2019-07-06T01:33:21,42.805,6.029,CST-1368DR,8774,12273,15486,0.033,551
2019-07-06T01:36:22,42.805,6.029,CST-1368DR,8774,12275,15489,0.033,550
2019-07-06T01:39:24,42.805,6.029,CST-1368DR,8774,12277,15491,0.032,551
2019-07-06T01:42:25,42.805,6.029,CST-1368DR,8774,12277,15491,0.032,551
2019-07-06T01:45:27,42.805,6.029,CST-1368DR,8774,12276,15490,0.032,551
2019-07-06T01:48:28,42.805,6.029,CST-1368DR,8774,12277,15491,0.032,551
2019-07-06T01:51:29,42.805,6.029,CST-1368DR,8774,12275,15489,0.033,551
2019-07-06T01:54:31,42.805,6.029,CST-1368DR,8774,12276,15490,0.032,551
2019-07-06T01:57:32,42.805,6.029,CST-1368DR,8774,12276,15490,0.032,551
2019-07-06T02:00:34,42.805,6.029,CST-1368DR,8774,12276,15490,0.032,551
2019-07-06T02:03:35,42.805,6.029,CST-1368DR,8773,12270,15484,0.034,551
2019-07-06T02:06:37,42.805,6.029,CST-1368DR,8773,12269,15482,0.034,551
2019-07-06T02:09:38,42.805,6.029,CST-1368DR,8773,12276,15492,0.032,551
2019-07-06T02:12:39,42.805,6.029,CST-1368DR,8773,12273,15488,0.033,551
2019-07-06T02:15:41,42.805,6.029,CST-1368DR,8774,12276,15489,0.033,551
2019-07-06T02:18:42,42.805,6.029,CST-1368DR,8774,12274,15487,0.033,551
2019-07-06T02:21:44,42.805,6.029,CST-1368DR,8773,12275,15491,0.032,551
2019-07-06T02:24:45,42.805,6.029,CST-1368DR,8773,12276,15491,0.032,551
2019-07-06T02:27:46,42.805,6.029,CST-1368DR,8773,12275,15491,0.032,551
2019-07-06T02:30:48,42.805,6.029,CST-1368DR,8773,12276,15491,0.032,551
2019-07-06T02:33:49,42.805,6.029,CST-1368DR,8773,12276,15492,0.032,551
2019-07-06T02:36:51,42.805,6.029,CST-1368DR,8773,12275,15490,0.032,551
2019-07-06T02:39:52,42.805,6.029,CST-1368DR,8773,12275,15490,0.032,551
2019-07-06T02:42:53,42.805,6.029,CST-1368DR,8773,12275,15490,0.032,551
2019-07-06T02:45:55,42.805,6.029,CST-1368DR,8773,12276,15491,0.032,551
2019-07-06T02:48:56,42.805,6.029,CST-1368DR,8773,12274,15489,0.033,551
2019-07-06T02:51:58,42.805,6.029,CST-1368DR,8773,12275,15491,0.032,551
2019-07-06T02:54:59,42.805,6.029,CST-1368DR,8773,12275,15491,0.032,551
2019-07-06T02:58:00,42.805,6.029,CST-1368DR,8773,12275,15490,0.032,551
2019-07-06T03:01:02,42.805,6.029,CST-1368DR,8773,12275,15491,0.032,551
2019-07-06T03:04:03,42.805,6.029,CST-1368DR,8773,12273,15488,0.033,550
2019-07-06T03:07:05,42.805,6.029,CST-1368DR,8773,12275,15490,0.032,551
2019-07-06T03:10:06,42.805,6.029,CST-1368DR,8773,12275,15491,0.032,551
2019-07-06T03:13:08,42.805,6.029,CST-1368DR,8773,12274,15489,0.033,551
2019-07-06T03:16:09,42.805,6.029,CST-1368DR,8773,12275,15490,0.032,551
2019-07-06T03:19:10,42.805,6.029,CST-1368DR,8773,12275,15491,0.032,551
2019-07-06T03:22:12,42.805,6.029,CST-1368DR,8773,12275,15490,0.032,551
2019-07-06T03:25:13,42.805,6.029,CST-1368DR,8773,12273,15488,0.033,551
2019-07-06T03:28:15,42.805,6.029,CST-1368DR,8773,12275,15490,0.032,551
2019-07-06T03:31:16,42.805,6.029,CST-1368DR,8773,12273,15488,0.033,551
2019-07-06T03:34:17,42.805,6.029,CST-1368DR,8772,12267,15482,0.034,551
2019-07-06T03:37:19,42.805,6.029,CST-1368DR,8773,12271,15485,0.034,551
2019-07-06T03:40:20,42.805,6.029,CST-1368DR,8772,12265,15480,0.035,551
2019-07-06T03:43:22,42.805,6.029,CST-1368DR,8773,12274,15489,0.033,551
2019-07-06T03:46:23,42.805,6.029,CST-1368DR,8773,12275,15490,0.032,551
2019-07-06T03:49:24,42.805,6.029,CST-1368DR,8773,12273,15487,0.033,550
2019-07-06T03:52:26,42.805,6.029,CST-1368DR,8773,12272,15487,0.033,551
2019-07-06T03:55:27,42.805,6.029,CST-1368DR,8772,12274,15490,0.032,551
2019-07-06T03:58:29,42.805,6.029,CST-1368DR,8772,12274,15490,0.032,551
2019-07-06T04:01:30,42.805,6.029,CST-1368DR,8773,12273,15488,0.033,550
2019-07-06T04:04:32,42.805,6.029,CST-1368DR,8772,12272,15488,0.033,551
2019-07-06T04:07:33,42.805,6.029,CST-1368DR,8772,12275,15491,0.032,550
2019-07-06T04:10:34,42.805,6.029,CST-1368DR,8772,12273,15490,0.032,551
2019-07-06T04:13:36,42.805,6.029,CST-1368DR,8772,12273,15489,0.033,551
2019-07-06T04:16:37,42.805,6.029,CST-1368DR,8772,12273,15490,0.032,551
2019-07-06T04:19:39,42.805,6.029,CST-1368DR,8772,12275,15492,0.032,551
2019-07-06T04:22:40,42.805,6.029,CST-1368DR,8772,12274,15491,0.032,551
2019-07-06T04:25:41,42.805,6.029,CST-1368DR,8772,12271,15487,0.033,551
2019-07-06T04:28:43,42.805,6.029,CST-1368DR,8772,12274,15490,0.032,551
2019-07-06T04:31:44,42.805,6.029,CST-1368DR,8772,12275,15491,0.032,551
2019-07-06T04:34:46,42.805,6.029,CST-1368DR,8772,12275,15491,0.032,551
2019-07-06T04:37:47,42.805,6.029,CST-1368DR,8772,12273,15490,0.032,551
2019-07-06T04:40:48,42.805,6.029,CST-1368DR,8772,12274,15491,0.032,550
2019-07-06T04:43:50,42.805,6.029,CST-1368DR,8772,12275,15491,0.032,550
2019-07-06T04:46:51,42.805,6.029,CST-1368DR,8772,12274,15490,0.032,551
2019-07-06T04:49:53,42.805,6.029,CST-1368DR,8772,12273,15490,0.032,550
2019-07-06T04:52:54,42.805,6.029,CST-1368DR,8772,12274,15490,0.032,551
2019-07-06T04:55:55,42.805,6.029,CST-1368DR,8772,12273,15490,0.032,551
2019-07-06T04:58:57,42.805,6.029,CST-1368DR,8772,12274,15490,0.032,551
2019-07-06T05:01:58,42.805,6.029,CST-1368DR,8772,12273,15489,0.033,551
2019-07-06T05:05:00,42.805,6.029,CST-1368DR,8772,12273,15489,0.033,551
2019-07-06T05:08:01,42.805,6.029,CST-1368DR,8772,12273,15489,0.033,551
2019-07-06T05:11:03,42.805,6.029,CST-1368DR,8772,12273,15490,0.032,551
2019-07-06T05:14:04,42.805,6.029,CST-1368DR,8772,12270,15485,0.034,551
2019-07-06T05:17:05,42.805,6.029,CST-1368DR,8771,12273,15491,0.032,551
2019-07-06T05:20:07,42.805,6.029,CST-1368DR,8771,12267,15483,0.034,551
2019-07-06T05:23:08,42.805,6.029,CST-1368DR,8772,12271,15487,0.033,551
2019-07-06T05:26:10,42.805,6.029,CST-1368DR,8771,12273,15491,0.032,551
2019-07-06T05:29:11,42.805,6.029,CST-1368DR,8771,12270,15487,0.033,550
2019-07-06T05:32:12,42.805,6.029,CST-1368DR,8771,12272,15490,0.032,551
2019-07-06T05:35:14,42.805,6.029,CST-1368DR,8771,12273,15491,0.032,551
2019-07-06T05:38:15,42.805,6.029,CST-1368DR,8771,12270,15487,0.033,551
2019-07-06T05:41:17,42.805,6.029,CST-1368DR,8771,12273,15491,0.032,551
2019-07-06T05:44:18,42.805,6.029,CST-1368DR,8771,12274,15492,0.032,551
2019-07-06T05:47:19,42.805,6.029,CST-1368DR,8771,12272,15490,0.032,551
2019-07-06T05:50:21,42.805,6.029,CST-1368DR,8771,12272,15490,0.032,551
2019-07-06T05:53:22,42.805,6.029,CST-1368DR,8771,12272,15489,0.033,551
2019-07-06T05:56:24,42.805,6.029,CST-1368DR,8771,12272,15490,0.032,551
2019-07-06T05:59:25,42.805,6.029,CST-1368DR,8771,12271,15489,0.033,550
2019-07-06T06:02:26,42.805,6.029,CST-1368DR,8771,12271,15489,0.033,551
2019-07-06T06:05:28,42.805,6.029,CST-1368DR,8771,12273,15491,0.032,551
2019-07-06T06:08:29,42.805,6.029,CST-1368DR,8771,12273,15491,0.032,551
2019-07-06T06:11:31,42.805,6.029,CST-1368DR,8771,12273,15491,0.032,551
2019-07-06T06:14:32,42.805,6.029,CST-1368DR,8771,12273,15491,0.032,551
2019-07-06T06:17:34,42.805,6.029,CST-1368DR,8771,12271,15489,0.033,551
2019-07-06T06:20:35,42.805,6.029,CST-1368DR,8771,12272,15490,0.032,551
2019-07-06T06:23:36,42.805,6.029,CST-1368DR,8771,12272,15490,0.032,551
2019-07-06T06:26:38,42.805,6.029,CST-1368DR,8771,12270,15488,0.033,551
2019-07-06T06:29:39,42.805,6.029,CST-1368DR,8771,12270,15487,0.033,551
2019-07-06T06:32:41,42.805,6.029,CST-1368DR,8771,12270,15488,0.033,551
2019-07-06T06:35:42,42.805,6.029,CST-1368DR,8771,12269,15486,0.033,551
2019-07-06T06:38:43,42.805,6.029,CST-1368DR,8771,12269,15486,0.033,551
2019-07-06T06:41:45,42.805,6.029,CST-1368DR,8771,12270,15487,0.033,551
2019-07-06T06:44:46,42.805,6.029,CST-1368DR,8771,12268,15485,0.034,551
2019-07-06T06:47:48,42.805,6.029,CST-1368DR,8771,12271,15489,0.033,551
2019-07-06T06:50:49,42.805,6.029,CST-1368DR,8771,12267,15483,0.034,551
2019-07-06T06:53:50,42.805,6.029,CST-1368DR,8771,12267,15483,0.034,551
2019-07-06T06:56:52,42.805,6.029,CST-1368DR,8770,12270,15489,0.033,551
2019-07-06T06:59:53,42.805,6.029,CST-1368DR,8770,12269,15487,0.033,551
2019-07-06T07:02:55,42.805,6.029,CST-1368DR,8770,12268,15487,0.033,551
2019-07-06T07:05:56,42.805,6.029,CST-1368DR,8771,12270,15487,0.033,551
2019-07-06T07:08:57,42.805,6.029,CST-1368DR,8770,12270,15489,0.033,551
2019-07-06T07:11:59,42.805,6.029,CST-1368DR,8770,12270,15488,0.033,551
2019-07-06T07:15:00,42.805,6.029,CST-1368DR,8770,12264,15482,0.034,550
2019-07-06T07:18:02,42.805,6.029,CST-1368DR,8770,12269,15487,0.033,551
2019-07-06T07:21:03,42.805,6.029,CST-1368DR,8770,12267,15485,0.034,551
2019-07-06T07:24:05,42.805,6.029,CST-1368DR,8770,12270,15489,0.033,551
2019-07-06T07:27:06,42.805,6.029,CST-1368DR,8770,12270,15489,0.033,550
2019-07-06T07:30:07,42.805,6.029,CST-1368DR,8770,12269,15488,0.033,551
2019-07-06T07:33:09,42.805,6.029,CST-1368DR,8770,12269,15487,0.033,551
2019-07-06T07:36:10,42.805,6.029,CST-1368DR,8770,12270,15489,0.033,550
2019-07-06T07:39:12,42.805,6.029,CST-1368DR,8770,12270,15489,0.033,551
2019-07-06T07:42:13,42.805,6.029,CST-1368DR,8770,12269,15487,0.033,551
2019-07-06T07:45:14,42.805,6.029,CST-1368DR,8770,12269,15488,0.033,551
2019-07-06T07:48:16,42.805,6.029,CST-1368DR,8770,12270,15488,0.033,551
2019-07-06T07:51:17,42.805,6.029,CST-1368DR,8770,12270,15489,0.033,551
2019-07-06T07:54:19,42.805,6.029,CST-1368DR,8770,12268,15486,0.033,551
2019-07-06T07:57:20,42.805,6.029,CST-1368DR,8770,12268,15486,0.033,550
2019-07-06T08:00:21,42.805,6.029,CST-1368DR,8770,12268,15487,0.033,551
2019-07-06T08:03:23,42.805,6.029,CST-1368DR,8770,12270,15488,0.033,551
2019-07-06T08:06:24,42.805,6.029,CST-1368DR,8770,12270,15489,0.033,551
2019-07-06T08:09:26,42.805,6.029,CST-1368DR,8770,12269,15487,0.033,551
2019-07-06T08:12:27,42.805,6.029,CST-1368DR,8770,12271,15490,0.032,550
2019-07-06T08:15:29,42.805,6.029,CST-1368DR,8770,12270,15489,0.033,551
2019-07-06T08:18:30,42.805,6.029,CST-1368DR,8770,12269,15487,0.033,551
2019-07-06T08:21:31,42.805,6.029,CST-1368DR,8770,12270,15489,0.033,551
2019-07-06T08:24:33,42.805,6.029,CST-1368DR,8770,12268,15486,0.033,551
2019-07-06T08:27:34,42.805,6.029,CST-1368DR,8770,12267,15486,0.033,551
2019-07-06T08:30:36,42.805,6.029,CST-1368DR,8770,12270,15489,0.033,551
2019-07-06T08:33:37,42.805,6.029,CST-1368DR,8770,12267,15486,0.033,550
2019-07-06T08:36:38,42.805,6.029,CST-1368DR,8770,12266,15483,0.034,551
2019-07-06T08:39:40,42.805,6.029,CST-1368DR,8770,12269,15487,0.033,551
2019-07-06T08:42:41,42.805,6.029,CST-1368DR,8770,12270,15488,0.033,551
2019-07-06T08:45:43,42.805,6.029,CST-1368DR,8769,12263,15482,0.034,551
2019-07-06T08:48:44,42.805,6.029,CST-1368DR,8769,12268,15488,0.033,551
2019-07-06T08:51:45,42.805,6.029,CST-1368DR,8769,12269,15489,0.033,551
2019-07-06T08:54:47,42.805,6.029,CST-1368DR,8769,12268,15488,0.033,551
2019-07-06T08:57:48,42.805,6.029,CST-1368DR,8769,12268,15488,0.033,551
2019-07-06T09:00:50,42.805,6.029,CST-1368DR,8769,12269,15489,0.033,551
2019-07-06T09:03:51,42.805,6.029,CST-1368DR,8769,12266,15485,0.034,551
2019-07-06T09:06:52,42.805,6.029,CST-1368DR,8769,12268,15488,0.033,551
2019-07-06T09:09:54,42.805,6.029,CST-1368DR,8769,12269,15489,0.033,551
2019-07-06T09:12:55,42.805,6.029,CST-1368DR,8769,12262,15480,0.035,551
2019-07-06T09:15:57,42.805,6.029,CST-1368DR,8769,12269,15490,0.032,551
2019-07-06T09:18:58,42.805,6.029,CST-1368DR,8769,12269,15489,0.033,551
2019-07-06T09:22:00,42.805,6.029,CST-1368DR,8769,12269,15490,0.032,551
2019-07-06T09:25:01,42.805,6.029,CST-1368DR,8769,12270,15491,0.032,551
2019-07-06T09:28:02,42.805,6.029,CST-1368DR,8769,12269,15489,0.033,551
2019-07-06T09:31:04,42.805,6.029,CST-1368DR,8769,12267,15487,0.033,551
2019-07-06T09:34:05,42.805,6.029,CST-1368DR,8769,12266,15486,0.033,551
2019-07-06T09:37:07,42.805,6.029,CST-1368DR,8769,12269,15489,0.033,551
2019-07-06T09:40:08,42.805,6.029,CST-1368DR,8769,12265,15485,0.034,551
2019-07-06T09:43:09,42.805,6.029,CST-1368DR,8769,12266,15486,0.033,551
2019-07-06T09:46:11,42.805,6.029,CST-1368DR,8769,12268,15488,0.033,551
2019-07-06T09:49:12,42.805,6.029,CST-1368DR,8769,12266,15486,0.033,551
2019-07-06T09:52:14,42.805,6.029,CST-1368DR,8769,12267,15487,0.033,551
2019-07-06T09:55:15,42.805,6.029,CST-1368DR,8769,12267,15487,0.033,551
2019-07-06T09:58:16,42.805,6.029,CST-1368DR,8769,12267,15486,0.033,551
2019-07-06T10:01:18,42.805,6.029,CST-1368DR,8769,12267,15487,0.033,551
2019-07-06T10:04:19,42.805,6.029,CST-1368DR,8769,12269,15489,0.033,551
2019-07-06T10:07:21,42.805,6.029,CST-1368DR,8769,12267,15487,0.033,551
2019-07-06T10:10:22,42.805,6.029,CST-1368DR,8768,12264,15485,0.034,551
2019-07-06T10:13:23,42.805,6.029,CST-1368DR,8769,12264,15483,0.034,551
2019-07-06T10:16:25,42.805,6.029,CST-1368DR,8769,12268,15488,0.033,551
2019-07-06T10:19:26,42.805,6.029,CST-1368DR,8769,12267,15487,0.033,551
2019-07-06T10:22:28,42.805,6.029,CST-1368DR,8769,12268,15488,0.033,551
2019-07-06T10:25:29,42.805,6.029,CST-1368DR,8769,12265,15484,0.034,551
2019-07-06T10:28:31,42.805,6.029,CST-1368DR,8769,12267,15487,0.033,551
2019-07-06T10:31:32,42.805,6.029,CST-1368DR,8768,12268,15489,0.033,551
2019-07-06T10:34:33,42.805,6.029,CST-1368DR,8769,12269,15489,0.033,551
2019-07-06T10:37:35,42.805,6.029,CST-1368DR,8768,12267,15488,0.033,551
2019-07-06T10:40:36,42.805,6.029,CST-1368DR,8769,12268,15488,0.033,551
2019-07-06T10:43:38,42.805,6.029,CST-1368DR,8769,12266,15486,0.033,551
2019-07-06T10:46:39,42.805,6.029,CST-1368DR,8768,12269,15490,0.032,551
2019-07-06T10:49:40,42.805,6.029,CST-1368DR,8769,12267,15487,0.033,551
2019-07-06T10:52:42,42.805,6.029,CST-1368DR,8768,12266,15487,0.033,550
2019-07-06T10:55:43,42.805,6.029,CST-1368DR,8768,12269,15490,0.032,551
2019-07-06T10:58:45,42.805,6.029,CST-1368DR,8768,12268,15490,0.032,551
2019-07-06T11:01:46,42.805,6.029,CST-1368DR,8768,12265,15486,0.033,551
2019-07-06T11:04:47,42.805,6.029,CST-1368DR,8768,12265,15486,0.033,551
2019-07-06T11:07:49,42.805,6.029,CST-1368DR,8768,12267,15489,0.033,551
2019-07-06T11:10:50,42.805,6.029,CST-1368DR,8768,12263,15484,0.034,551
2019-07-06T11:13:52,42.805,6.029,CST-1368DR,8768,12265,15486,0.033,550
2019-07-06T11:16:53,42.805,6.029,CST-1368DR,8768,12265,15486,0.033,551
2019-07-06T11:19:54,42.805,6.029,CST-1368DR,8768,12266,15487,0.033,551
2019-07-06T11:22:56,42.805,6.029,CST-1368DR,8768,12267,15488,0.033,551
2019-07-06T11:25:57,42.805,6.029,CST-1368DR,8768,12267,15488,0.033,551
2019-07-06T11:28:59,42.805,6.029,CST-1368DR,8768,12263,15483,0.034,551
2019-07-06T11:32:00,42.805,6.029,CST-1368DR,8768,12263,15483,0.034,551
2019-07-06T11:35:02,42.805,6.029,CST-1368DR,8768,12264,15484,0.034,551
2019-07-06T11:38:03,42.805,6.029,CST-1368DR,8768,12264,15485,0.034,551
2019-07-06T11:41:04,42.805,6.029,CST-1368DR,8768,12266,15487,0.033,551
2019-07-06T11:44:06,42.805,6.029,CST-1368DR,8768,12265,15485,0.034,551
2019-07-06T11:47:07,42.805,6.029,CST-1368DR,8768,12260,15480,0.035,551
2019-07-06T11:50:09,42.805,6.029,CST-1368DR,8768,12267,15488,0.033,550
2019-07-06T11:53:10,42.805,6.029,CST-1368DR,8768,12265,15486,0.033,551
2019-07-06T11:56:11,42.805,6.029,CST-1368DR,8768,12264,15485,0.034,550
2019-07-06T11:59:13,42.805,6.029,CST-1368DR,8768,12265,15485,0.034,551
2019-07-06T12:02:14,42.805,6.029,CST-1368DR,8768,12265,15485,0.034,551
2019-07-06T12:05:16,42.805,6.029,CST-1368DR,8768,12265,15486,0.033,550
2019-07-06T12:08:17,42.805,6.029,CST-1368DR,8768,12265,15485,0.034,551
2019-07-06T12:11:18,42.805,6.029,CST-1368DR,8768,12265,15486,0.033,551
2019-07-06T12:14:20,42.805,6.029,CST-1368DR,8768,12265,15486,0.033,551
2019-07-06T12:17:21,42.805,6.029,CST-1368DR,8768,12264,15484,0.034,551
2019-07-06T12:20:23,42.805,6.029,CST-1368DR,8768,12266,15487,0.033,550
2019-07-06T12:23:24,42.805,6.029,CST-1368DR,8768,12260,15480,0.035,551
2019-07-06T12:26:26,42.805,6.029,CST-1368DR,8768,12266,15487,0.033,551
2019-07-06T12:29:27,42.805,6.029,CST-1368DR,8768,12266,15487,0.033,551
2019-07-06T12:32:28,42.805,6.029,CST-1368DR,8768,12268,15490,0.032,551
2019-07-06T12:35:30,42.805,6.029,CST-1368DR,8768,12266,15487,0.033,551
2019-07-06T12:38:31,42.805,6.029,CST-1368DR,8768,12267,15488,0.033,551
2019-07-06T12:41:33,42.805,6.029,CST-1368DR,8768,12267,15488,0.033,551
2019-07-06T12:44:34,42.805,6.029,CST-1368DR,8767,12267,15490,0.032,551
2019-07-06T12:47:35,42.805,6.029,CST-1368DR,8768,12266,15487,0.033,551
2019-07-06T12:50:37,42.805,6.029,CST-1368DR,8768,12265,15486,0.033,551
2019-07-06T12:53:38,42.805,6.029,CST-1368DR,8767,12267,15490,0.032,551
2019-07-06T12:56:40,42.805,6.029,CST-1368DR,8767,12265,15487,0.033,551
2019-07-06T12:59:41,42.805,6.029,CST-1368DR,8767,12266,15489,0.033,551
2019-07-06T13:02:42,42.805,6.029,CST-1368DR,8767,12266,15489,0.033,551
2019-07-06T13:05:44,42.805,6.029,CST-1368DR,8767,12266,15489,0.033,551
2019-07-06T13:08:45,42.805,6.029,CST-1368DR,8767,12266,15489,0.033,551
2019-07-06T13:11:47,42.805,6.029,CST-1368DR,8767,12264,15486,0.033,551
2019-07-06T13:14:48,42.805,6.029,CST-1368DR,8767,12266,15489,0.033,551
2019-07-06T13:17:49,42.805,6.029,CST-1368DR,8767,12266,15489,0.033,551
2019-07-06T13:20:51,42.805,6.029,CST-1368DR,8767,12264,15486,0.033,550
2019-07-06T13:23:52,42.805,6.029,CST-1368DR,8767,12265,15487,0.033,551
2019-07-06T13:26:54,42.805,6.029,CST-1368DR,8767,12262,15484,0.034,551
2019-07-06T13:29:55,42.805,6.029,CST-1368DR,8767,12260,15481,0.035,551
2019-07-06T13:32:57,42.805,6.029,CST-1368DR,8767,12265,15487,0.033,551
2019-07-06T13:35:58,42.805,6.029,CST-1368DR,8767,12267,15490,0.032,551
2019-07-06T13:38:59,42.805,6.029,CST-1368DR,8767,12256,15477,0.036,551
2019-07-06T13:42:01,42.805,6.029,CST-1368DR,8767,12265,15487,0.033,551
2019-07-06T13:45:02,42.805,6.029,CST-1368DR,8767,12261,15483,0.034,551
2019-07-06T13:48:04,42.805,6.029,CST-1368DR,8767,12264,15486,0.033,551
2019-07-06T13:51:05,42.805,6.029,CST-1368DR,8767,12262,15483,0.034,551
2019-07-06T13:54:06,42.805,6.029,CST-1368DR,8767,12265,15487,0.033,551
2019-07-06T13:57:08,42.805,6.029,CST-1368DR,8767,12266,15489,0.033,551
2019-07-06T14:00:09,42.805,6.029,CST-1368DR,8767,12266,15488,0.033,551
2019-07-06T14:03:11,42.805,6.029,CST-1368DR,8767,12265,15487,0.033,551
2019-07-06T14:06:12,42.805,6.029,CST-1368DR,8767,12264,15486,0.033,551
2019-07-06T14:09:13,42.805,6.029,CST-1368DR,8767,12266,15489,0.033,551
2019-07-06T14:12:15,42.805,6.029,CST-1368DR,8767,12265,15487,0.033,551
2019-07-06T14:15:16,42.805,6.029,CST-1368DR,8767,12261,15483,0.034,551
2019-07-06T14:18:18,42.805,6.029,CST-1368DR,8767,12263,15484,0.034,551
2019-07-06T14:21:19,42.805,6.029,CST-1368DR,8767,12263,15485,0.034,551
2019-07-06T14:24:20,42.805,6.029,CST-1368DR,8767,12263,15485,0.034,551
2019-07-06T14:27:22,42.805,6.029,CST-1368DR,8766,12264,15488,0.033,551
2019-07-06T14:30:23,42.805,6.029,CST-1368DR,8766,12260,15483,0.034,551
2019-07-06T14:33:25,42.805,6.029,CST-1368DR,8767,12262,15483,0.034,551
2019-07-06T14:36:26,42.805,6.029,CST-1368DR,8767,12265,15487,0.033,551
2019-07-06T14:39:28,42.805,6.029,CST-1368DR,8766,12265,15490,0.032,551
2019-07-06T14:42:29,42.805,6.029,CST-1368DR,8767,12264,15486,0.033,551
2019-07-06T14:45:30,42.805,6.029,CST-1368DR,8766,12263,15486,0.033,550
2019-07-06T14:48:32,42.805,6.029,CST-1368DR,8766,12265,15489,0.033,551
2019-07-06T14:51:33,42.805,6.029,CST-1368DR,8766,12265,15489,0.033,551
2019-07-06T14:54:35,42.805,6.029,CST-1368DR,8766,12263,15487,0.033,551
2019-07-06T14:57:36,42.805,6.029,CST-1368DR,8767,12263,15485,0.034,551
2019-07-06T15:00:37,42.805,6.029,CST-1368DR,8766,12265,15489,0.033,551
2019-07-06T15:03:39,42.805,6.029,CST-1368DR,8766,12260,15483,0.034,550
2019-07-06T15:06:40,42.805,6.029,CST-1368DR,8766,12265,15490,0.032,550
2019-07-06T15:09:42,42.805,6.029,CST-1368DR,8766,12263,15486,0.033,551
2019-07-06T15:12:43,42.805,6.029,CST-1368DR,8766,12265,15489,0.033,551
2019-07-06T15:15:44,42.805,6.029,CST-1368DR,8766,12263,15487,0.033,551
2019-07-06T15:18:46,42.805,6.029,CST-1368DR,8766,12263,15487,0.033,550
2019-07-06T15:21:47,42.805,6.029,CST-1368DR,8766,12262,15485,0.034,550
2019-07-06T15:24:49,42.805,6.029,CST-1368DR,8766,12263,15487,0.033,550
2019-07-06T15:27:50,42.805,6.029,CST-1368DR,8766,12265,15489,0.033,551
2019-07-06T15:30:51,42.805,6.029,CST-1368DR,8766,12261,15484,0.034,551
2019-07-06T15:33:53,42.805,6.029,CST-1368DR,8766,12258,15481,0.035,551
2019-07-06T15:36:54,42.805,6.029,CST-1368DR,8766,12263,15487,0.033,551
2019-07-06T15:39:56,42.805,6.029,CST-1368DR,8766,12262,15485,0.034,551
2019-07-06T15:42:57,42.805,6.029,CST-1368DR,8765,12261,15486,0.033,550
2019-07-06T15:45:59,42.805,6.029,CST-1368DR,8766,12266,15491,0.032,551
2019-07-06T15:49:00,42.805,6.029,CST-1368DR,8766,12265,15490,0.032,551
2019-07-06T15:52:01,42.805,6.029,CST-1368DR,8766,12264,15488,0.033,551
2019-07-06T15:55:03,42.805,6.029,CST-1368DR,8765,12259,15483,0.034,551
2019-07-06T15:58:04,42.805,6.029,CST-1368DR,8765,12265,15490,0.032,550
2019-07-06T16:01:06,42.805,6.029,CST-1368DR,8765,12266,15492,0.032,550
2019-07-06T16:04:07,42.805,6.029,CST-1368DR,8766,12267,15491,0.032,551
2019-07-06T16:07:08,42.805,6.029,CST-1368DR,8765,12265,15491,0.032,551
2019-07-06T16:10:10,42.805,6.029,CST-1368DR,8765,12266,15491,0.032,551
2019-07-06T16:13:11,42.805,6.029,CST-1368DR,8765,12266,15492,0.032,551
2019-07-06T16:16:13,42.805,6.029,CST-1368DR,8765,12267,15493,0.032,551
2019-07-06T16:19:14,42.805,6.029,CST-1368DR,8765,12265,15491,0.032,551
2019-07-06T16:22:15,42.805,6.029,CST-1368DR,8765,12265,15490,0.032,551
2019-07-06T16:25:17,42.805,6.029,CST-1368DR,8765,12262,15486,0.033,551
2019-07-06T16:28:18,42.805,6.029,CST-1368DR,8765,12266,15491,0.032,551
2019-07-06T16:31:20,42.805,6.029,CST-1368DR,8765,12263,15488,0.033,551
2019-07-06T16:34:21,42.805,6.029,CST-1368DR,8765,12265,15490,0.032,551
2019-07-06T16:37:23,42.805,6.029,CST-1368DR,8765,12266,15492,0.032,550